TimeMST,TemperatureF,Dew PointF,Humidity,Sea Level PressureIn,VisibilityMPH,Wind Direction,Wind SpeedMPH,Gust SpeedMPH,PrecipitationIn,Events,Conditions,WindDirDegrees,DateUTC
12:58 AM,36.3,16.0,44,29.79,10.0,ESE,24.2,29.9,N/A,,Overcast,120,2013-02-19 07:58:00
1:58 AM,36.0,16.0,44,29.75,10.0,ESE,27.6,32.2,N/A,,Mostly Cloudy,120,2013-02-19 08:58:00
2:58 AM,36.3,14.5,41,29.75,10.0,SE,19.6,28.8,N/A,,Overcast,130,2013-02-19 09:58:00
3:58 AM,36.9,14.7,40,29.74,10.0,SE,17.3,27.6,N/A,,Overcast,130,2013-02-19 10:58:00
4:31 AM,37.4,14.0,38,29.72,10.0,South,18.4,25.3,N/A,,Mostly Cloudy,170,2013-02-19 11:31:00
4:40 AM,37.4,15.8,41,29.70,10.0,SE,18.4,24.2,N/A,,Mostly Cloudy,130,2013-02-19 11:40:00
4:41 AM,37.4,15.8,41,29.70,10.0,SE,20.7,27.6,N/A,,Mostly Cloudy,130,2013-02-19 11:41:00
4:42 AM,37.4,15.8,41,29.70,10.0,SE,23.0,27.6,N/A,,Mostly Cloudy,130,2013-02-19 11:42:00
4:58 AM,36.7,14.9,41,29.72,10.0,SE,16.1,25.3,N/A,,Mostly Cloudy,140,2013-02-19 11:58:00
5:08 AM,37.4,14.0,38,29.70,10.0,SSE,15.0,-,N/A,,Mostly Cloudy,150,2013-02-19 12:08:00
5:58 AM,36.5,14.5,41,29.72,10.0,SE,16.1,-,N/A,,Overcast,130,2013-02-19 12:58:00
6:28 AM,35.6,14.0,41,29.68,10.0,SE,19.6,-,N/A,,Mostly Cloudy,130,2013-02-19 13:28:00
6:58 AM,35.4,13.5,41,29.72,10.0,SE,18.4,-,N/A,,Mostly Cloudy,130,2013-02-19 13:58:00
7:03 AM,35.6,14.0,41,29.69,10.0,SSE,13.8,-,N/A,,Mostly Cloudy,150,2013-02-19 14:03:00
7:13 AM,33.8,15.8,48,29.69,10.0,SSE,15.0,-,N/A,,Mostly Cloudy,150,2013-02-19 14:13:00
7:28 AM,33.8,15.8,48,29.69,10.0,SSE,13.8,-,N/A,,Mostly Cloudy,150,2013-02-19 14:28:00
7:58 AM,33.6,15.4,47,29.72,10.0,ESE,23.0,28.8,N/A,,Scattered Clouds,110,2013-02-19 14:58:00
8:58 AM,37.0,15.8,42,29.71,10.0,ESE,24.2,-,N/A,,Clear,110,2013-02-19 15:58:00
9:58 AM,39.9,20.5,46,29.71,10.0,ESE,25.3,28.8,N/A,,Partly Cloudy,110,2013-02-19 16:58:00
10:33 AM,41.0,21.2,45,29.67,10.0,ESE,25.3,-,N/A,,Mostly Cloudy,110,2013-02-19 17:33:00
10:43 AM,41.0,23.0,49,29.67,10.0,ESE,21.9,-,N/A,,Scattered Clouds,110,2013-02-19 17:43:00
10:58 AM,42.1,21.9,45,29.70,10.0,East,21.9,-,N/A,,Partly Cloudy,100,2013-02-19 17:58:00
11:25 AM,44.6,21.2,39,29.66,10.0,East,20.7,-,N/A,,Mostly Cloudy,100,2013-02-19 18:25:00
11:45 AM,44.6,21.2,39,29.66,10.0,ESE,20.7,26.5,N/A,,Mostly Cloudy,110,2013-02-19 18:45:00
11:58 AM,44.4,21.6,40,29.69,10.0,ESE,21.9,-,N/A,,Mostly Cloudy,110,2013-02-19 18:58:00
12:08 PM,46.4,21.2,37,29.65,10.0,ESE,19.6,-,N/A,,Mostly Cloudy,110,2013-02-19 19:08:00
12:55 PM,48.2,21.2,34,29.64,10.0,ESE,18.4,-,N/A,,Scattered Clouds,110,2013-02-19 19:55:00
1:55 PM,48.2,23.0,37,29.64,10.0,SW,6.9,-,N/A,,Mostly Cloudy,230,2013-02-19 20:55:00
2:55 PM,44.6,26.6,49,29.64,10.0,South,16.1,-,N/A,,Mostly Cloudy,170,2013-02-19 21:55:00
3:47 PM,41.0,28.4,61,29.66,7.0,North,12.7,-,N/A,,Overcast,10,2013-02-19 22:47:00
3:52 PM,41.0,28.4,61,29.66,10.0,North,12.7,-,N/A,,Overcast,360,2013-02-19 22:52:00
3:55 PM,41.0,28.4,61,29.66,7.0,North,15.0,-,N/A,,Mostly Cloudy,350,2013-02-19 22:55:00
3:58 PM,41.0,28.6,61,29.69,10.0,North,13.8,-,N/A,,Overcast,10,2013-02-19 22:58:00
4:23 PM,41.0,28.4,61,29.66,9.0,North,12.7,-,N/A,,Mostly Cloudy,360,2013-02-19 23:23:00
5:34 PM,41.0,28.4,61,29.67,10.0,NNW,10.4,-,N/A,,Overcast,340,2013-02-20 00:34:00
5:58 PM,40.6,28.2,61,29.70,10.0,North,8.1,-,N/A,,Overcast,360,2013-02-20 00:58:00
6:13 PM,41.0,26.6,57,29.67,10.0,NNW,11.5,-,N/A,,Mostly Cloudy,340,2013-02-20 01:13:00
6:18 PM,39.2,26.6,61,29.67,10.0,NNW,11.5,-,N/A,,Mostly Cloudy,340,2013-02-20 01:18:00
6:58 PM,36.9,28.8,72,29.72,10.0,North,11.5,-,N/A,,Partly Cloudy,350,2013-02-20 01:58:00
9:10 PM,33.8,28.4,81,29.70,10.0,WNW,10.4,-,N/A,,Overcast,300,2013-02-20 04:10:00
9:57 PM,33.8,28.4,81,29.74,10.0,WNW,11.5,-,N/A,,Overcast,300,2013-02-20 04:57:00
10:59 PM,32.0,28.4,87,29.75,10.0,WNW,5.8,-,N/A,,Overcast,300,2013-02-20 05:59:00
11:58 PM,32.5,28.2,84,29.75,10.0,NW,12.7,-,N/A,,Scattered Clouds,310,2013-02-20 06:58:00